Location: Bourg-d�Oueil
(42.8588°N, 0.4991°E)
Time: 02:47:13
(UTC+00:00)

Cosmos 1470 - Pass Details

Date: 16 June 2021
Orbit: 519 x 543 km, 82.5° (Epoch: 04 August)

Event Time Altitude Azimuth Distance (km) Brightness Sun altitude
Rises 20:08:45 0° 358° (N) 2,715 7.0 -5.2°
Reaches altitude 10° 20:11:01 10° 6° (N) 1,816 6.0 -5.6°
Maximum altitude 20:14:49 41° 78° (ENE) 793 3.4 -6.1°
Drops below altitude 10° 20:18:33 10° 149° (SSE) 1,792 4.8 -6.6°
Enters shadow 20:19:13 - 152° (SSE) 2,050 5.1 -6.7°
